Location: Hysolar-Haus
(48.7436°N, 9.0965°E)
Time: 04:38:02
(UTC+00:00)

Explorer 7 - Pass Details

Date: 22 November 2019
Orbit: 485 x 680 km, 50.3° (Epoch: 08 December)

Event Time Altitude Azimuth Distance (km) Brightness Sun altitude
Exits shadow 04:28:03 24° 194° (SSW) 1,117 8.3 -21.7°
Drops below altitude 10° 04:30:29 10° 159° (SSE) 1,747 9.7 -21.3°
Sets 04:32:50 0° 147° (SSE) 2,602 10.8 -20.9°
